Location: Jackson
(42.2460°N, 84.4010°W)
Time: 03:39:26
(UTC-05:00)

Vanguard 3 - Visible Passes

Search period start: 15 February 2026 00:00
Search period end: 25 February 2026 00:00
Orbit: 507 x 3205 km, 33.3° (Epoch: 15 February)

Date Brightness Start Highest point End Pass type
(mag) Time Alt. Az. Time Alt. Az. Time Alt. Az.
15 Feb 8.3 18:58:10 10° WSW 19:03:54 31° S 19:07:48 10° ESE visible
15 Feb 9.3 21:10:49 10° WSW 21:11:43 13° SW 21:11:43 13° SW visible
16 Feb 8.0 19:48:06 10° WSW 19:53:07 29° S 19:54:49 22° SSE visible
17 Feb 8.5 20:38:16 10° WSW 20:41:50 21° SSW 20:41:50 21° SSW visible
18 Feb 8.4 19:15:06 10° WSW 19:21:12 33° SSW 19:24:56 12° SE visible
19 Feb 8.4 20:05:27 10° WSW 20:10:14 24° SSW 20:11:59 19° S visible
20 Feb 8.7 18:41:49 10° WSW 18:49:12 37° SSW 18:53:51 10° SE visible
20 Feb 9.2 20:56:33 10° WSW 20:59:01 13° SSW 20:59:02 13° SSW visible
21 Feb 8.9 19:32:21 10° WSW 19:38:16 27° SSW 19:42:11 11° SE visible
22 Feb 9.1 20:23:27 10° WSW 20:27:00 16° SW 20:29:17 12° S visible
23 Feb 9.1 18:58:59 10° W 19:06:12 31° SSW 19:10:51 10° SE visible
24 Feb 9.3 19:50:08 10° WSW 19:54:56 18° SW 19:58:30 10° S visible
